Location: Sommers-Bausch Observatory
(40.0037°N, 105.2635°W)
Time: 00:59:07
(UTC-06:00)

Daily predictions for brighter satellites

Satellite Brightness Start Highest point End
(mag) Time Altitude Azimuth Time Altitude Azimuth Time Altitude Azimuth
Meteor 2-11 Rocket 4.3 00:01:53 10° N 00:08:02 79° E 00:08:19 77° ESE
CZ-2C R/B 3.1 00:15:45 72° NNE 00:15:45 72° NNE 00:20:20 10° N
Okean 2 Rocket 4.0 00:19:09 47° N 00:19:09 47° N 00:22:22 10° N
Lacrosse 4 Rocket 3.6 00:16:13 10° NW 00:18:27 21° W 00:18:27 21° W
CZ-2C R/B 2.7 00:15:05 10° NNE 00:19:38 68° NNE 00:19:38 68° NNE
Cosmos 1867 3.9 00:21:50 10° NW 00:26:26 58° WNW 00:26:26 58° WNW
Cosmos 1655 Rocket 4.3 00:32:18 53° WSW 00:32:59 56° W 00:39:07 10° N
ATLAS CENTAUR R/B 3.3 00:35:09 26° NNE 00:35:09 26° NNE 00:36:55 10° NNE
Cosmos 2266 Rocket 4.0 00:34:08 66° E 00:34:08 66° E 00:40:09 10° NNE
Mayak 0.3 00:41:22 10° NNE 00:43:45 32° NNE 00:43:45 32° NNE
USA 234 4.4 00:46:39 10° ENE 00:50:38 29° E 00:50:38 29° E
ISS -0.5 00:53:30 13° NNW 00:54:02 13° NNW 00:55:41 10° NNE
ALOS 2 4.1 01:01:16 31° NW 01:01:16 31° NW 01:03:53 10° NNW
Cosmos 2297 Rocket 2.4 00:54:47 10° NNW 01:00:13 63° NE 01:00:13 63° NE
Cosmos 1697 Rocket 3.7 01:02:46 35° ENE 01:02:46 35° ENE 01:06:46 10° NE
USA 229 DEB 4.1 01:05:28 48° E 01:05:28 48° E 01:11:30 10° NE
USA 229 4.1 01:05:36 48° E 01:05:36 48° E 01:11:35 10° NE
Meteor 1-13 Rocket 4.5 01:03:07 10° NNW 01:08:18 62° WNW 01:08:18 62° WNW
Cosmos 2056 Rocket 4.0 01:13:28 52° NE 01:13:28 52° NE 01:17:24 10° NNE
CZ-4B R/B 4.0 01:17:11 22° N 01:17:11 22° N 01:18:39 10° N
Nadezhda 2 Rocket 4.3 01:16:30 84° ENE 01:16:30 84° ENE 01:22:29 10° N
Cosmos 2278 3.8 01:21:12 71° NW 01:21:12 71° NW 01:26:35 10° NNE
Cosmos 2082 3.8 01:15:37 10° NNW 01:20:43 71° NW 01:20:43 71° NW
Cosmos 1025 Rocket 4.3 01:21:40 10° N 01:24:32 39° NNE 01:24:32 39° NNE
Meteor 1-11 Rocket 4.3 01:29:18 49° WNW 01:29:22 49° WNW 01:35:09 10° N
GP-B 4.5 01:26:56 10° N 01:29:48 34° NW 01:29:48 34° NW
Cosmos 1452 Rocket 4.2 01:39:41 46° ENE 01:39:41 46° ENE 01:43:57 10° NNE
Meteor 1-23 Rocket 4.5 01:37:57 10° NNW 01:42:57 59° WNW 01:42:57 59° WNW
H-2A R/B 3.9 01:44:30 10° NNE 01:46:57 34° NNE 01:46:57 34° NNE
Cosmos 2227 Rocket 3.2 01:43:44 10° NW 01:47:37 35° WNW 01:47:37 35° WNW
Cosmos 921 Rocket 4.2 01:54:33 39° NNW 01:54:33 39° NNW 01:57:26 10° N
Cosmos 1238 Rocket 3.6 01:49:51 10° N 01:54:33 77° NNE 01:54:33 77° NNE
NOSS 3-1 (C) 3.8 01:57:06 47° ESE 01:57:06 47° ESE 02:02:45 10° NE
BREEZE-M DEB (TANK) 4.4 01:36:04 10° NW 01:58:47 61° SW 02:00:15 54° SSW
Cosmos 1975 4.1 02:05:16 40° NNE 02:05:16 40° NNE 02:07:57 10° NNE
Cosmos 1743 4.5 02:09:10 30° NE 02:09:10 30° NE 02:11:34 10° NNE
Resurs 1-4 Rocket 4.2 02:05:49 10° NE 02:08:58 16° E 02:10:15 15° ESE
Cosmos 1420 Rocket 4.2 02:11:13 65° ENE 02:11:13 65° ENE 02:15:59 10° NNE
Cosmos 2263 Rocket 4.4 02:06:58 10° N 02:11:15 21° NE 02:15:30 10° ESE
Cosmos 1745 Rocket 3.8 02:11:31 78° SSW 02:11:58 87° W 02:18:10 10° N
Cosmos 1544 Rocket 4.2 02:16:14 53° N 02:16:14 53° N 02:19:41 10° N
Helios 1A Rocket 4.2 02:11:50 10° NNE 02:14:39 37° NE 02:14:39 37° NE
Cosmos 1980 Rocket 2.1 02:16:12 83° WNW 02:16:14 83° WNW 02:21:54 10° NNE
Cosmos 614 Rocket 4.0 02:12:53 10° NNW 02:17:53 70° ENE 02:17:53 70° ENE
Cosmos 676 Rocket 4.4 02:14:53 10° NNW 02:19:10 54° WNW 02:19:10 54° WNW
Mayak 1.4 02:19:37 10° NW 02:20:24 11° WNW 02:20:24 11° WNW
CZ-2D R/B 3.9 02:18:00 10° NE 02:22:10 22° E 02:23:43 19° ESE
IRS-P3 4.4 02:23:45 10° NNE 02:29:00 55° E 02:29:26 54° ESE
CZ-4C R/B 2.9 02:22:53 10° NNW 02:30:08 80° NE 02:35:35 23° SE
Cosmos 839 Rocket 3.9 02:30:02 64° WSW 02:31:00 78° WNW 02:37:11 10° NNE
ISS -0.4 02:30:20 10° NNW 02:31:38 12° N 02:32:56 10° NNE
Cosmos 1455 Rocket 3.6 02:33:00 52° NNW 02:33:00 52° NNW 02:36:27 10° N
Cosmos 1741 Rocket 4.3 02:27:55 10° NNW 02:33:06 62° ENE 02:34:00 53° ESE
PSLV R/B 4.4 02:28:49 10° N 02:33:00 46° WNW 02:33:00 46° WNW
USA 234 3.4 02:29:12 10° NE 02:35:42 68° NW 02:37:57 42° WSW
ARIANE 5 R/B 4.2 02:31:37 10° NE 02:35:42 24° E 02:37:10 21° ESE
Meteor 1-12 Rocket 4.3 02:39:13 60° WSW 02:39:41 63° WNW 02:45:26 10° N
Cosmos 1461 3.9 02:39:28 10° NNW 02:43:42 48° NE 02:45:03 35° ESE
Cosmos 2297 Rocket 4.2 02:40:21 10° WNW 02:42:00 15° WNW 02:42:00 15° WNW
Cosmos 1697 Rocket 3.9 02:44:29 27° WNW 02:45:36 29° WNW 02:50:28 10° N
Cosmos 1140 Rocket 3.9 02:42:01 10° NNW 02:46:18 48° WNW 02:46:18 48° WNW
SL-16 R/B 2.2 02:53:50 59° SSE 02:54:46 71° ESE 03:00:26 10° NNE
CBERS-1 3.9 02:53:11 10° NNE 02:58:22 89° ESE 02:59:02 69° S
Meteor 2-9 Rocket 4.4 02:58:30 49° SSE 03:00:03 71° E 03:05:54 10° NNE
NOSS 3-1 (A) 3.3 03:00:18 56° SW 03:01:37 81° NW 03:08:05 10° NNE
Cosmos 2322 Rocket 2.1 03:04:09 59° SSW 03:05:19 87° ESE 03:11:04 10° NNE
Cosmos 1602 Rocket 3.6 03:01:45 10° NNW 03:05:56 66° WNW 03:05:56 66° WNW
ADEOS Rocket 2.9 03:02:58 10° N 03:09:22 79° WNW 03:11:01 50° SSW
Cosmos 1666 3.7 03:13:26 37° NW 03:13:26 37° NW 03:16:22 10° N
COBE Rocket 4.1 03:08:52 10° N 03:13:59 65° WNW 03:14:53 55° WSW
BREEZE-M DEB (TANK) 4.1 03:15:52 17° ESE 03:15:52 17° ESE 03:17:19 10° E
Meteor 1-4 Rocket 3.3 03:20:51 41° ESE 03:21:04 42° E 03:24:25 10° NNE
Cosmos 1709 Rocket 4.3 03:21:27 41° WSW 03:23:00 50° WNW 03:28:56 10° N
SL-08 R/B 3.5 03:25:48 46° W 03:25:48 46° W 03:30:13 10° NNW
ADEOS 3.8 03:20:44 10° NNE 03:25:56 63° ESE 03:28:01 35° S
Cosmos 1726 Rocket 4.3 03:24:47 33° SE 03:26:19 47° E 03:30:33 10° NNE
SL-16 R/B 2.5 03:22:58 29° SSE 03:26:26 84° WSW 03:32:45 10° NNW
Cosmos 1842 3.7 03:27:47 10° NNW 03:31:04 45° WNW 03:31:04 45° WNW
UNKNOWN OBJECT B 3.9 03:28:37 10° NNE 03:32:10 36° E 03:33:30 27° SE
Cosmos 1606 Rocket 3.5 03:38:18 45° S 03:39:37 83° E 03:44:05 10° N
NOSS 2-3 (C) 4.4 03:40:49 33° S 03:42:34 51° ESE 03:47:41 10° NE
IRS-1D 3.4 03:37:56 10° N 03:42:52 71° WNW 03:44:38 40° SW
Spot 4 Rocket 4.1 03:38:15 10° N 03:43:23 67° WNW 03:45:17 38° SW
MOS 1 Rocket 3.1 03:41:00 10° NNE 03:45:36 80° E 03:47:21 37° S
Cosmos 1302 Rocket 4.1 03:43:38 32° S 03:46:05 72° ESE 03:51:23 10° NNE
Iridium 4 Rocket 3.8 03:43:34 24° S 03:47:16 83° E 03:53:01 10° N
Resurs 1-4 Rocket 2.2 03:43:59 10° N 03:49:12 61° WNW 03:51:19 35° SW
Cosmos 1110 Rocket 4.3 03:48:02 36° WSW 03:49:49 52° WNW 03:54:53 10° N
USA 161 4.4 03:48:38 10° ESE 03:50:52 19° ENE 03:53:06 10° NNE
Cosmos 2327 Rocket 4.5 03:48:37 28° SSW 03:52:15 80° W 03:58:42 10° N
ADEOS II 4.0 03:48:02 10° NE 03:52:16 24° E 03:56:28 10° SSE
BREEZE M DEB (TANK) 4.4 03:49:00 12° W 03:52:42 25° NNW 03:54:57 10° NNE
Cosmos 2184 Rocket 3.9 03:50:42 29° SSW 03:54:00 71° W 04:00:12 10° N
Cosmos 44 3.5 03:50:09 10° NNW 03:54:29 61° NE 03:58:57 10° SE
COSMOS 2428 3.8 03:50:30 15° SSE 03:54:45 38° ESE 04:00:01 10° NE
Cosmos 2263 Rocket 2.2 03:49:59 10° NNW 03:55:35 60° WSW 03:59:56 17° S
CZ-2D R/B 3.7 03:54:03 10° NNE 03:58:25 71° ESE 04:00:41 27° S
Cosmos 2360 Rocket 2.1 03:56:06 30° SSW 03:59:02 86° WNW 04:04:44 10° NNE
BREEZE-M DEB (TANK) 4.0 03:58:04 25° S 04:00:26 45° ESE 04:13:25 10° ENE
Cosmos 1980 Rocket 4.3 03:58:25 10° WNW 04:01:08 13° NW 04:03:50 10° NNW
MOZ.5/SAFIR/RUBIN 5/SL-8 3.7 03:58:03 17° SSE 04:01:35 86° WSW 04:06:15 10° NNW
Meteor 2-5 Rocket 4.1 03:56:45 10° N 04:02:23 68° E 04:08:05 10° SSE
CZ-2D R/B 2.6 03:57:10 10° N 04:02:26 48° WNW 04:05:02 28° SW
Cosmos 1825 Rocket 3.9 03:59:25 10° NNW 04:03:38 46° W 04:05:05 33° SW
Cosmos 1758 Rocket 3.5 03:59:36 10° NNW 04:03:56 64° W 04:06:04 28° SSW
Cosmos 2219 Rocket 3.9 04:00:19 10° SSE 04:05:01 27° ESE 04:09:43 10° NE
ISS -1.7 04:05:59 10° NW 04:08:55 29° NNE 04:11:51 10° E
Cosmos 2333 Rocket 4.0 04:09:43 10° SSE 04:14:22 26° ESE 04:19:00 10° NE
ARIANE 5 R/B 3.2 04:10:10 10° N 04:14:55 40° WNW 04:17:31 23° WSW
Cosmos 1844 Rocket 3.9 04:11:42 10° NNW 04:17:08 45° ENE 04:22:33 10° SE
Cosmos 2322 3.7 04:14:08 24° SSW 04:17:40 74° WNW 04:23:21 10° NNE
OAO 3 Rocket 3.8 04:16:06 26° SW 04:18:09 40° SSE 04:22:44 10° E
CZ-4C R/B 4.0 04:12:41 10° WNW 04:18:15 23° WSW 04:20:34 20° SW
Cosmos 1766 4.3 04:14:38 10° SSE 04:18:17 44° E 04:22:02 10° NNE
Meteor 1-24 Rocket 4.3 04:13:32 10° N 04:18:49 56° ENE 04:24:13 10° SSE
BREEZE-M DEB (TANK) 4.4 03:56:51 10° WNW 04:20:53 73° SW 04:26:00 10° SE
NOSS 2-3 (D) 3.9 04:18:11 25° SW 04:20:57 78° NW 04:26:23 10° NNE
Cosmos 1707 2.7 04:18:32 10° NNW 04:22:21 60° W 04:24:59 19° S
Cosmos 389 Rocket 3.4 04:20:19 12° SSE 04:23:23 46° E 04:26:49 10° NNE
Nadezhda 3 Rocket 4.0 04:20:06 10° N 04:26:21 81° W 04:32:38 10° S
Cosmos 2228 3.2 04:24:14 23° SSW 04:26:40 54° W 04:30:53 10° N
Cosmos 44 Rocket 3.2 04:22:50 10° NW 04:27:28 56° WSW 04:32:08 10° SSE
DELTA 2 R/B (1) 3.7 04:28:53 20° WSW 04:32:44 61° SSE 04:38:13 10° E
Cosmos 962 Rocket 4.4 04:27:32 10° S 04:33:39 88° W 04:39:48 10° N
Cosmos 2058 Rocket 3.7 04:31:44 20° SW 04:34:23 40° WNW 04:38:40 10° N
SL-8 R/B 3.7 04:31:11 20° WSW 04:34:33 88° NNW 04:39:24 10° ENE
Cosmos 1544 3.9 04:33:49 10° S 04:37:24 52° E 04:41:02 10° NNE
Cosmos 1184 Rocket 2.9 04:35:26 10° NNW 04:38:42 56° W 04:41:48 11° S
SL-16 R/B 4.0 04:35:42 10° W 04:39:27 18° NW 04:43:18 10° N
Cosmos 1340 Rocket 2.7 04:40:18 10° NNW 04:44:16 77° W 04:48:12 10° S
Okean O Rocket 2.4 04:40:48 10° NNE 04:45:10 51° E 04:49:30 10° S
Cosmos 2333 4.2 04:41:13 12° SSW 04:46:33 86° WNW 04:52:17 10° NNE
Cosmos 1378 3.8 04:43:50 10° NNW 04:47:15 35° W 04:50:17 12° SSW
ATLAS 2AS CENTAUR R/B 3.1 04:40:38 15° SW 04:47:22 76° NW 04:55:33 10° NNE
Cosmos 2154 Rocket 4.3 04:42:19 13° SSW 04:47:53 50° WNW 04:54:00 10° N
Aureole 2 Rocket 3.2 04:45:12 10° S 04:49:20 65° ESE 04:53:25 10° NNE
Cosmos 2322 Rocket 4.2 04:46:52 10° W 04:50:09 15° NW 04:53:27 10° NNW
Cosmos 1812 Rocket 3.6 04:46:02 10° S 04:50:25 86° E 04:54:48 10° N
Cosmos 1805 3.5 04:53:04 10° S 04:56:57 74° E 05:00:52 10° NNE
Cosmos 1844 4.0 04:53:03 10° NNW 04:58:40 75° ENE 05:04:19 10° SSE
CZ-4B R/B 2.8 04:55:03 10° NNE 04:58:51 86° E 05:02:50 10° SSW
Lacrosse 5 rocket 4.0 04:56:55 10° NNW 05:00:10 23° NE 05:03:34 10° E
Cosmos 1354 Rocket 4.1 04:55:05 10° NNW 05:00:17 58° WSW 05:05:28 10° S
Meteor 1-22 Rocket 4.4 04:55:07 10° SSW 05:00:40 63° WNW 05:06:31 10° N
Cosmos 972 4.4 04:56:09 10° SSW 05:01:11 89° W 05:06:04 10° NNE
Cosmos 972 Rocket 4.4 04:58:00 11° SW 05:02:22 42° WNW 05:07:05 10° N
Cosmos 1758 3.9 04:58:34 10° S 05:02:30 61° E 05:06:30 10° NNE
Cosmos 2341 Rocket 4.3 04:57:52 10° SSW 05:04:03 52° W 05:10:18 10° N
Cosmos 1674 4.2 05:01:06 10° N 05:04:44 39° E 05:08:21 10° SSE
Landsat 4 3.8 05:02:02 10° SSE 05:05:46 82° ENE 05:09:31 10° N
SL-16 R/B 4.3 05:08:52 10° WSW 05:10:53 12° W 05:12:53 10° WNW
BREEZE-M DEB (TANK) 4.3 05:09:53 10° NW 05:11:36 15° N 05:13:06 10° NE
Cosmos 1953 2.7 05:07:41 10° S 05:11:41 68° E 05:15:42 10° NNE
Cosmos 2366 rocket 4.1 05:07:11 10° S 05:13:19 86° E 05:19:33 10° N
Lacrosse 5 4.3 05:10:22 10° SSE 05:13:19 16° ESE 05:16:17 10° E
Cosmos 1271 Rocket 4.2 05:10:21 10° SW 05:13:36 23° WNW 05:16:50 10° NNW
SeaSat 1 2.7 05:13:13 10° S 05:17:58 48° WSW 05:22:46 10° NW
Meteor PRIRODA 4.3 05:15:41 10° NNE 05:19:24 58° E 05:23:04 10° S
NOSS 0 Rocket 4.1 05:14:33 10° SSW 05:20:43 79° ESE 05:26:57 10° NNE
